This is the latest recevied weather packets stored in our database for station/object N5XJB. If no packets are shown the sender has not sent any weather packets the latest 10 day(s).
| Time | Temp. | Humidity | Pressure | Rain* | Wind** | Luminosity | Snow |
|---|---|---|---|---|---|---|---|
| 1777743908 | 22.78° C | 51% | 1021.6 hPa | 0 mm | - | 900 W/m² | - |
| 1777743604 | 22.22° C | 51% | 1022 hPa | 0 mm | - | 886 W/m² | - |
| 1777743301 | 22.22° C | 53% | 1021.6 hPa | 0 mm | - | 880 W/m² | - |
| 1777742999 | 22.22° C | 51% | 1022 hPa | 0 mm | - | 876 W/m² | - |
| 1777742696 | 22.22° C | 56% | 1022 hPa | 0 mm | - | 873 W/m² | - |
| 1777742392 | 21.67° C | 53% | 1022 hPa | 0 mm | - | 862 W/m² | - |
| 1777742088 | 21.67° C | 53% | 1022 hPa | 0 mm | - | 857 W/m² | - |
| 1777741786 | 21.67° C | 51% | 1022 hPa | 0 mm | - | 852 W/m² | - |
| 1777741482 | 21.67° C | 54% | 1022 hPa | 0 mm | - | 838 W/m² | - |
| 1777741178 | 21.67° C | 55% | 1022 hPa | 0 mm | - | 835 W/m² | - |
| 1777740876 | 21.11° C | 55% | 1022 hPa | 0 mm | - | 827 W/m² | - |
| 1777740573 | 21.11° C | 54% | 1022 hPa | 0 mm | - | 819 W/m² | - |
| 1777740269 | 21.67° C | 53% | 1022 hPa | 0 mm | - | 812 W/m² | - |
| 1777739965 | 21.67° C | 58% | 1022 hPa | 0 mm | - | 803 W/m² | - |
| 1777739662 | 21.67° C | 57% | 1021.6 hPa | 0 mm | - | 790 W/m² | - |
| 1777739360 | 21.11° C | 56% | 1022 hPa | 0 mm | - | 779 W/m² | - |
| 1777739056 | 21.11° C | 58% | 1022 hPa | 0 mm | - | 769 W/m² | - |
| 1777738753 | 21.67° C | 60% | 1022 hPa | 0 mm | - | 757 W/m² | - |
| 1777738449 | 21.11° C | 59% | 1022 hPa | 0 mm | - | 750 W/m² | - |
| 1777738147 | 20.56° C | 62% | 1022 hPa | 0 mm | - | 738 W/m² | - |
| 1777737846 | 20.56° C | 64% | 1021.6 hPa | 0 mm | - | 716 W/m² | - |
| 1777737544 | 20° C | 65% | 1022 hPa | 0 mm | - | 710 W/m² | - |
| 1777737242 | 20° C | 63% | 1022 hPa | 0 mm | - | 695 W/m² | - |
| 1777736937 | 20° C | 65% | 1021.6 hPa | 0 mm | - | 685 W/m² | - |
| 1777736025 | 19.44° C | 68% | 1021.6 hPa | 0 mm | - | 643 W/m² | - |
* Rain latest hour (hover to see other rain measurements)
** Current wind speed in m/s (hover to see current wind gust speed)